Weather History for KARG - March, 2012

Change the Weather History Date:

Monday, March 19, 2012

  Actual Average Record
Temperature  
Mean Temperature 71 °F -  
Max Temperature 78 °F 57 °F 78 °F (2012)
Min Temperature 64 °F 39 °F 33 °F (2013)
Cooling Degree Days 6    
Growing Degree Days 21 (Base 50)    
Moisture  
Dew Point 62 °F    
Average Humidity 74    
Maximum Humidity 88    
Minimum Humidity 57    
Precipitation  
Precipitation 0.00 in - - ()
Sea Level Pressure  
Sea Level Pressure 29.95 in    
Wind  
Wind Speed 13 mph (SSE)    
Max Wind Speed 22 mph    
Max Gust Speed 28 mph    
Visibility 10 miles    
Events      
Averages and records for this station are not official NWS values.
T = Trace of Precipitation, MM = Missing Value Source: NWS Daily Summary

Daily Weather History Graph

Daily Weather History Graph

Search for Another Location

Airport or City:

Trip Planner

Search our weather history database for the weather conditions in past years. The results will help you decide how hot, cold, wet, or windy it might be!

Date:

Astronomy

Mar. 19, 2012 Rise Set
Actual Time 7:08 AM CDT 7:15 PM CDT
Civil Twilight 6:42 AM CDT 7:40 PM CDT
Nautical Twilight 6:12 AM CDT 8:10 PM CDT
Astronomical Twilight 5:42 AM CDT 8:40 PM CDT
Moon 5:15 AM CDT (3/19) 4:47 PM CDT (3/19)
Length of Visible Light 12h 58m
Length of Day
12h 07m
Waning Crescent, 8% of the Moon is Illuminated
Mar 19
Waning Crescent
Mar 22
New
Mar 30
First Quarter
Apr 6
Full
Apr 13
Last Quarter

Hourly Weather History & Observations

Time (CDT) Temp. Dew Point Humidity Pressure Visibility Wind Dir Wind Speed Gust Speed Precip Events Conditions
12:15 AM 69.8 °F 62.6 °F 78% 30.01 in 10.0 mi SSE 10.4 mph - N/A   Clear
12:35 AM 68.0 °F 62.6 °F 83% 30.01 in 10.0 mi SSE 10.4 mph - N/A   Clear
12:55 AM 68.0 °F 62.6 °F 83% 30.00 in 10.0 mi SSE 10.4 mph - N/A   Clear
1:15 AM 68.0 °F 62.6 °F 83% 29.99 in 10.0 mi SSE 9.2 mph - N/A   Clear
1:55 AM 66.2 °F 60.8 °F 83% 29.99 in 10.0 mi SSE 8.1 mph - N/A   Clear
2:35 AM 66.2 °F 60.8 °F 83% 29.99 in 10.0 mi SSE 8.1 mph - N/A   Partly Cloudy
3:15 AM 66.2 °F 60.8 °F 83% 29.98 in 10.0 mi SSE 10.4 mph - N/A   Clear
4:15 AM 66.2 °F 60.8 °F 83% 29.99 in 10.0 mi South 12.7 mph - N/A   Clear
4:35 AM 66.2 °F 60.8 °F 83% 29.99 in 10.0 mi South 10.4 mph - N/A   Clear
4:55 AM 64.4 °F 60.8 °F 88% 29.99 in 10.0 mi SSE 9.2 mph - N/A   Clear
5:15 AM 64.4 °F 60.8 °F 88% 29.99 in 10.0 mi SSE 10.4 mph - N/A   Clear
5:35 AM 66.2 °F 60.8 °F 83% 29.99 in 10.0 mi South 10.4 mph - N/A   Clear
5:55 AM 66.2 °F 60.8 °F 83% 29.99 in 10.0 mi South 10.4 mph - N/A   Clear
6:15 AM 64.4 °F 60.8 °F 88% 29.99 in 10.0 mi South 10.4 mph - N/A   Clear
6:35 AM 64.4 °F 60.8 °F 88% 29.99 in 10.0 mi SSE 10.4 mph - N/A   Clear
7:15 AM 64.4 °F 60.8 °F 88% 30.00 in 10.0 mi SSE 10.4 mph - N/A   Clear
7:35 AM 66.2 °F 62.6 °F 88% 30.01 in 10.0 mi SSE 10.4 mph - N/A   Clear
7:55 AM 66.2 °F 62.6 °F 88% 30.02 in 10.0 mi South 13.8 mph - N/A   Clear
8:15 AM 66.2 °F 62.6 °F 88% 30.01 in 10.0 mi SSE 11.5 mph - N/A   Clear
8:35 AM 66.2 °F 62.6 °F 88% 30.02 in 10.0 mi SSE 10.4 mph - N/A   Clear
8:55 AM 66.2 °F 62.6 °F 88% 30.02 in 10.0 mi SSE 11.5 mph - N/A   Clear
9:15 AM 68.0 °F 64.4 °F 88% 30.02 in 10.0 mi SSE 13.8 mph - N/A   Clear
9:35 AM 69.8 °F 64.4 °F 83% 30.02 in 10.0 mi SSE 15.0 mph 18.4 mph N/A   Clear
9:55 AM 69.8 °F 64.4 °F 83% 30.02 in 10.0 mi SSE 16.1 mph - N/A   Clear
10:15 AM 69.8 °F 64.4 °F 83% 30.02 in 10.0 mi South 15.0 mph - N/A   Clear
10:35 AM 71.6 °F 64.4 °F 78% 30.02 in 10.0 mi South 15.0 mph - N/A   Clear
10:55 AM 71.6 °F 64.4 °F 78% 30.02 in 10.0 mi South 19.6 mph 23.0 mph N/A   Clear
11:15 AM 71.6 °F 64.4 °F 78% 30.01 in 10.0 mi South 17.3 mph - N/A   Clear
11:35 AM 73.4 °F 64.4 °F 73% 30.01 in 10.0 mi South 17.3 mph - N/A   Clear
11:55 AM 73.4 °F 64.4 °F 73% 30.00 in 10.0 mi SSE 19.6 mph 24.2 mph N/A   Clear
12:15 PM 73.4 °F 64.4 °F 73% 29.99 in 10.0 mi SSE 20.7 mph - N/A   Clear
12:35 PM 75.2 °F 64.4 °F 69% 29.99 in 10.0 mi South 17.3 mph 24.2 mph N/A   Clear
12:55 PM 75.2 °F 62.6 °F 65% 29.98 in 10.0 mi South 21.9 mph 25.3 mph N/A   Clear
1:15 PM 75.2 °F 64.4 °F 69% 29.98 in 10.0 mi South 18.4 mph - N/A   Clear
1:35 PM 77.0 °F 62.6 °F 61% 29.97 in 10.0 mi South 21.9 mph 27.6 mph N/A   Clear
1:55 PM 77.0 °F 64.4 °F 65% 29.95 in 10.0 mi South 19.6 mph 24.2 mph N/A   Clear
2:15 PM 77.0 °F 64.4 °F 65% 29.94 in 10.0 mi South 20.7 mph - N/A   Clear
2:35 PM 77.0 °F 64.4 °F 65% 29.94 in 10.0 mi South 15.0 mph - N/A   Clear
2:55 PM 78.8 °F 62.6 °F 57% 29.93 in 10.0 mi South 17.3 mph 25.3 mph N/A   Clear
3:15 PM 78.8 °F 62.6 °F 57% 29.92 in 10.0 mi SSE 18.4 mph 24.2 mph N/A   Clear
3:35 PM 78.8 °F 64.4 °F 61% 29.91 in 10.0 mi SSE 15.0 mph - N/A   Scattered Clouds
3:55 PM 77.0 °F 62.6 °F 61% 29.90 in 10.0 mi SSE 17.3 mph 24.2 mph N/A   Scattered Clouds
4:15 PM 77.0 °F 62.6 °F 61% 29.89 in 10.0 mi SSE 18.4 mph - N/A   Clear
4:35 PM 77.0 °F 62.6 °F 61% 29.89 in 10.0 mi SSE 18.4 mph 24.2 mph N/A   Clear
4:55 PM 78.8 °F 62.6 °F 57% 29.88 in 10.0 mi South 19.6 mph 23.0 mph N/A   Clear
5:15 PM 77.0 °F 62.6 °F 61% 29.87 in 10.0 mi SSE 20.7 mph 24.2 mph N/A   Clear
5:35 PM 77.0 °F 60.8 °F 57% 29.87 in 10.0 mi SSE 17.3 mph 21.9 mph N/A   Clear
5:55 PM 75.2 °F 60.8 °F 61% 29.87 in 10.0 mi South 18.4 mph 25.3 mph N/A   Clear
6:15 PM 75.2 °F 62.6 °F 65% 29.87 in 10.0 mi South 13.8 mph - N/A   Clear
6:35 PM 73.4 °F 60.8 °F 65% 29.86 in 10.0 mi South 11.5 mph - N/A   Clear
6:55 PM 71.6 °F 62.6 °F 73% 29.87 in 10.0 mi South 9.2 mph - N/A   Clear
7:15 PM 71.6 °F 60.8 °F 69% 29.87 in 10.0 mi South 10.4 mph - N/A   Clear
7:35 PM 71.6 °F 60.8 °F 69% 29.86 in 10.0 mi SSE 11.5 mph - N/A   Clear
7:55 PM 69.8 °F 60.8 °F 73% 29.86 in 10.0 mi SSE 11.5 mph - N/A   Clear
8:15 PM 69.8 °F 59.0 °F 68% 29.87 in 10.0 mi SSE 16.1 mph 21.9 mph N/A   Clear
8:35 PM 71.6 °F 55.4 °F 57% 29.87 in 10.0 mi South 16.1 mph - N/A   Clear
8:55 PM 69.8 °F 55.4 °F 60% 29.88 in 10.0 mi South 13.8 mph - N/A   Clear
9:15 PM 69.8 °F 55.4 °F 60% 29.89 in 10.0 mi South 12.7 mph - N/A   Clear
9:35 PM 68.0 °F 55.4 °F 64% 29.89 in 10.0 mi SSE 10.4 mph - N/A   Clear
9:55 PM 68.0 °F 55.4 °F 64% 29.90 in 10.0 mi SSE 10.4 mph - N/A   Clear
10:15 PM 66.2 °F 55.4 °F 68% 29.91 in 10.0 mi SSE 10.4 mph - N/A   Clear
10:35 PM 66.2 °F 57.2 °F 73% 29.91 in 10.0 mi SSE 10.4 mph - N/A   Clear
10:55 PM 66.2 °F 57.2 °F 73% 29.91 in 10.0 mi SSE 10.4 mph - N/A   Clear
11:15 PM 66.2 °F 57.2 °F 73% 29.92 in 10.0 mi SSE 10.4 mph - N/A   Clear
11:35 PM 66.2 °F 57.2 °F 73% 29.92 in 10.0 mi SSE 11.5 mph - N/A   Clear
11:55 PM 66.2 °F 57.2 °F 73% 29.92 in 10.0 mi SE 11.5 mph - N/A   Clear